Total_Precipitation_Accumulation
1.00 1.09 1.13 1.08 1.11 1.12 1.09 1.04 1.00 0.97 0.99 1.07 1.11 1.27 1.44 1.62 1.81 1.96 2.00 2.02 2.03 2.00 1.92 2.02 2.15 2.21 2.31 2.35 2.37 2.27 2.13 2.07 2.02 1.85 1.65 1.54 1.70 1.69 1.57 1.49 1.37 1.30 1.29
0.98 1.03 1.09 1.00 0.98 1.03 1.01 1.05 0.96 0.87 0.84 0.89 1.03 1.23 1.34 1.43 1.49 1.59 1.67 1.72 1.78 1.85 1.83 1.78 1.84 1.91 2.06 2.21 2.31 2.28 2.28 2.16 2.09 2.10 1.93 1.69 1.59 1.63 1.65 1.71 1.60 1.37 1.33
1.10 1.20 1.15 1.02 1.00 1.02 0.97 1.03 0.96 0.90 0.86 0.86 0.98 1.12 1.18 1.24 1.29 1.34 1.44 1.57 1.60 1.58 1.61 1.54 1.53 1.60 1.75 1.89 1.98 2.07 2.20 2.23 2.26 2.24 2.18 1.99 1.73 1.70 1.74 1.74 1.76 1.80 1.56
1.32 1.34 1.24 1.12 1.02 0.97 0.94 0.97 0.95 0.94 0.93 0.94 1.06 1.12 1.14 1.13 1.25 1.27 1.33 1.36 1.30 1.25 1.26 1.24 1.26 1.31 1.40 1.55 1.70 1.92 2.10 2.21 2.27 2.30 2.26 2.05 1.87 1.80 1.74 1.75 1.83 1.90 1.88
1.27 1.23 1.18 1.07 0.93 0.86 0.88 0.87 0.91 0.97 0.96 0.99 1.04 1.13 1.16 1.15 1.19 1.25 1.22 1.14 1.11 1.08 1.03 0.91 0.93 1.01 1.04 1.13 1.17 1.46 1.72 1.94 2.06 2.13 2.13 2.00 1.81 1.70 1.55 1.57 1.70 1.88 1.96
1.17 1.10 0.99 0.92 0.91 0.83 0.79 0.77 0.80 0.83 0.86 0.88 0.92 1.07 1.17 1.05 1.16 1.16 1.05 0.95 0.90 0.94 0.90 0.82 0.80 0.85 0.78 0.75 0.78 1.01 1.30 1.48 1.66 1.85 1.91 1.80 1.66 1.59 1.64 1.62 1.61 1.67 1.71
0.94 0.89 0.81 0.79 0.77 0.70 0.68 0.70 0.75 0.77 0.81 0.83 0.81 0.95 1.03 1.08 1.03 0.87 0.92 0.89 0.89 0.91 0.93 0.94 0.85 0.81 0.90 0.79 0.73 0.81 0.89 1.00 1.16 1.42 1.64 1.63 1.73 1.67 1.57 1.51 1.52 1.57 1.57
0.84 0.85 0.79 0.73 0.68 0.64 0.61 0.63 0.74 0.76 0.74 0.76 0.77 0.76 0.82 0.96 0.92 0.76 0.80 0.78 0.89 0.96 1.00 1.07 1.06 0.99 0.97 1.03 0.96 0.97 0.93 0.87 0.95 0.86 1.06 1.43 1.59 1.65 1.61 1.64 1.74 1.68 1.55
0.63 0.69 0.66 0.59 0.61 0.65 0.62 0.67 0.71 0.70 0.72 0.70 0.73 0.74 0.77 0.81 0.81 0.73 0.75 0.79 0.92 0.94 0.90 1.02 1.06 1.01 1.06 1.12 1.21 1.26 1.18 1.03 1.15 1.15 1.05 1.16 1.32 1.37 1.49 1.58 1.64 1.58 1.53
0.40 0.46 0.49 0.47 0.50 0.57 0.65 0.72 0.70 0.66 0.71 0.71 0.68 0.65 0.67 0.68 0.75 0.67 0.78 0.85 0.89 0.90 0.91 0.98 1.14 1.06 1.03 1.01 1.07 1.19 1.18 1.05 0.93 0.96 0.93 0.83 0.77 0.89 1.10 1.25 1.54 1.66 1.61
0.34 0.36 0.38 0.39 0.42 0.50 0.55 0.54 0.54 0.57 0.63 0.65 0.67 0.62 0.60 0.66 0.79 0.80 0.85 0.85 0.89 0.95 1.03 1.07 1.05 1.15 0.99 0.94 0.94 0.94 1.03 1.03 1.00 1.04 1.10 0.99 0.87 0.82 0.87 0.96 1.17 1.41 1.56
0.30 0.33 0.33 0.31 0.31 0.33 0.38 0.42 0.44 0.47 0.49 0.50 0.51 0.50 0.53 0.64 0.72 0.73 0.76 0.80 0.89 0.88 0.92 0.93 0.90 0.99 0.85 0.76 0.70 0.76 0.84 0.89 0.96 1.08 1.07 1.02 1.00 0.94 0.93 0.97 1.04 1.16 1.26
0.31 0.31 0.31 0.30 0.29 0.30 0.34 0.37 0.41 0.45 0.49 0.47 0.43 0.42 0.47 0.52 0.60 0.63 0.62 0.63 0.67 0.68 0.65 0.76 0.80 0.77 0.71 0.63 0.67 0.71 0.73 0.74 0.84 0.93 0.95 0.91 0.91 0.95 0.96 0.97 1.00 1.05 1.05
0.27 0.28 0.29 0.30 0.31 0.31 0.34 0.38 0.44 0.45 0.41 0.40 0.41 0.43 0.48 0.51 0.52 0.51 0.54 0.54 0.54 0.59 0.57 0.62 0.65 0.62 0.61 0.61 0.64 0.68 0.73 0.76 0.79 0.82 0.83 0.86 0.87 0.93 0.99 0.97 0.98 1.05 1.11
0.26 0.26 0.26 0.28 0.30 0.31 0.28 0.30 0.36 0.39 0.37 0.39 0.40 0.44 0.48 0.50 0.48 0.47 0.46 0.51 0.56 0.61 0.67 0.62 0.60 0.60 0.60 0.66 0.69 0.68 0.71 0.76 0.75 0.74 0.77 0.78 0.77 0.83 0.88 0.89 0.92 0.97 1.02
0.25 0.25 0.26 0.26 0.29 0.29 0.27 0.28 0.30 0.31 0.35 0.35 0.33 0.34 0.31 0.31 0.36 0.36 0.37 0.42 0.50 0.56 0.67 0.73 0.76 0.81 0.83 0.82 0.78 0.69 0.65 0.67 0.72 0.78 0.79 0.79 0.79 0.77 0.80 0.84 0.88 0.96 1.00
0.31 0.29 0.28 0.27 0.26 0.26 0.28 0.30 0.32 0.29 0.25 0.26 0.27 0.26 0.26 0.28 0.30 0.31 0.32 0.37 0.41 0.47 0.64 0.81 0.84 0.82 0.78 0.74 0.69 0.62 0.57 0.55 0.58 0.68 0.78 0.85 0.85 0.84 0.87 0.90 0.91 0.89 0.90
0.40 0.40 0.34 0.29 0.28 0.28 0.30 0.35 0.39 0.41 0.35 0.27 0.25 0.26 0.26 0.26 0.27 0.31 0.38 0.45 0.42 0.44 0.60 0.71 0.74 0.72 0.65 0.59 0.52 0.46 0.47 0.46 0.46 0.52 0.57 0.65 0.79 0.90 0.98 1.01 1.03 1.05 1.04
0.40 0.42 0.40 0.39 0.35 0.33 0.35 0.41 0.43 0.40 0.33 0.30 0.28 0.27 0.26 0.26 0.28 0.29 0.34 0.38 0.37 0.38 0.42 0.44 0.45 0.47 0.46 0.43 0.40 0.40 0.42 0.43 0.45 0.46 0.47 0.52 0.62 0.77 0.94 1.05 1.08 1.14 1.12
0.30 0.36 0.39 0.41 0.41 0.38 0.39 0.42 0.43 0.40 0.33 0.30 0.30 0.28 0.27 0.26 0.25 0.26 0.27 0.31 0.35 0.36 0.35 0.34 0.35 0.36 0.36 0.35 0.35 0.38 0.42 0.44 0.43 0.45 0.50 0.57 0.66 0.72 0.78 0.89 1.04 1.08 1.01
0.23 0.25 0.30 0.34 0.37 0.37 0.36 0.38 0.43 0.44 0.38 0.35 0.33 0.32 0.32 0.31 0.32 0.29 0.27 0.29 0.31 0.33 0.34 0.36 0.39 0.38 0.38 0.41 0.42 0.41 0.43 0.45 0.45 0.45 0.49 0.56 0.66 0.76 0.82 0.85 0.88 0.93 0.97
0.22 0.22 0.23 0.27 0.31 0.33 0.34 0.33 0.38 0.42 0.42 0.39 0.38 0.38 0.38 0.35 0.35 0.36 0.36 0.36 0.37 0.38 0.39 0.42 0.45 0.43 0.41 0.43 0.46 0.48 0.49 0.49 0.49 0.50 0.53 0.55 0.60 0.67 0.77 0.84 0.87 0.88 0.90
0.18 0.19 0.22 0.25 0.28 0.30 0.31 0.31 0.33 0.35 0.37 0.38 0.36 0.37 0.37 0.36 0.36 0.37 0.39 0.39 0.40 0.43 0.46 0.52 0.53 0.50 0.48 0.49 0.50 0.49 0.52 0.54 0.54 0.55 0.59 0.61 0.61 0.64 0.70 0.75 0.76 0.78 0.80
0.22 0.23 0.26 0.28 0.28 0.27 0.27 0.29 0.31 0.32 0.34 0.36 0.38 0.40 0.40 0.38 0.37 0.36 0.37 0.37 0.38 0.40 0.43 0.46 0.49 0.50 0.54 0.56 0.57 0.55 0.55 0.59 0.57 0.55 0.62 0.70 0.70 0.69 0.72 0.75 0.74 0.75 0.82
0.27 0.26 0.27 0.29 0.30 0.29 0.28 0.28 0.29 0.32 0.34 0.38 0.41 0.42 0.42 0.42 0.41 0.40 0.39 0.40 0.41 0.40 0.41 0.42 0.43 0.46 0.51 0.58 0.59 0.57 0.64 0.67 0.64 0.57 0.55 0.63 0.68 0.69 0.74 0.77 0.81 0.87 0.96
0.30 0.30 0.30 0.29 0.29 0.31 0.32 0.33 0.33 0.37 0.38 0.40 0.41 0.41 0.42 0.44 0.46 0.47 0.47 0.46 0.44 0.41 0.40 0.42 0.45 0.44 0.45 0.52 0.60 0.66 0.67 0.63 0.66 0.69 0.62 0.62 0.67 0.72 0.79 0.86 0.90 0.99 1.06